Time,TemperatureF,DewpointF,PressureIn,WindDirection,WindDirectionDegrees,WindSpeedMPH,WindSpeedGustMPH,Humidity,HourlyPrecipIn,Conditions,Clouds,dailyrainin,SoftwareType,DateUTC
2013-02-20 00:22:00,50.0,50.0,-100.00,WNW,288,2.0,-999.0,100,0.00,,,-99.99,,2013-02-20 05:22:00,
2013-02-20 00:32:00,50.0,50.0,-100.00,WNW,288,2.0,-999.0,100,0.00,,,-99.99,,2013-02-20 05:32:00,
2013-02-20 00:43:00,50.0,50.0,-100.00,WNW,288,2.0,-999.0,100,0.00,,,-99.99,,2013-02-20 05:43:00,
2013-02-20 01:22:00,48.0,48.0,-100.00,WNW,284,2.0,-999.0,99,0.00,,,-99.99,,2013-02-20 06:22:00,
2013-02-20 01:32:00,48.0,48.0,-100.00,WNW,284,2.0,-999.0,99,0.00,,,-99.99,,2013-02-20 06:32:00,
2013-02-20 01:42:00,48.0,48.0,-100.00,WNW,284,2.0,-999.0,99,0.00,,,-99.99,,2013-02-20 06:42:00,
2013-02-20 02:21:00,46.0,43.0,-100.00,West,261,2.0,-999.0,89,0.00,,,-99.99,,2013-02-20 07:21:00,
2013-02-20 02:32:00,46.0,43.0,-100.00,West,261,2.0,-999.0,89,0.00,,,-99.99,,2013-02-20 07:32:00,
2013-02-20 02:42:00,46.0,43.0,-100.00,West,261,2.0,-999.0,89,0.00,,,-99.99,,2013-02-20 07:42:00,
2013-02-20 03:11:00,44.0,40.0,-100.00,West,273,2.0,-999.0,85,0.00,,,-99.99,,2013-02-20 08:11:00,
2013-02-20 03:22:00,44.0,40.0,-100.00,West,273,2.0,-999.0,85,0.00,,,-99.99,,2013-02-20 08:22:00,
2013-02-20 03:32:00,44.0,40.0,-100.00,West,273,2.0,-999.0,85,0.00,,,-99.99,,2013-02-20 08:32:00,
2013-02-20 03:42:00,44.0,40.0,-100.00,West,273,2.0,-999.0,85,0.00,,,-99.99,,2013-02-20 08:42:00,
2013-02-20 04:21:00,41.0,37.0,-100.00,WSW,247,1.0,-999.0,88,0.00,,,-99.99,,2013-02-20 09:21:00,
2013-02-20 04:32:00,41.0,37.0,-100.00,WSW,247,1.0,-999.0,88,0.00,,,-99.99,,2013-02-20 09:32:00,
2013-02-20 04:42:00,41.0,37.0,-100.00,WSW,247,1.0,-999.0,88,0.00,,,-99.99,,2013-02-20 09:42:00,
2013-02-20 05:22:00,37.0,35.0,-100.00,WSW,242,1.0,-999.0,94,0.00,,,-99.99,,2013-02-20 10:22:00,
2013-02-20 05:32:00,37.0,35.0,-100.00,WSW,242,1.0,-999.0,94,0.00,,,-99.99,,2013-02-20 10:32:00,
2013-02-20 05:42:00,37.0,35.0,-100.00,WSW,242,1.0,-999.0,94,0.00,,,-99.99,,2013-02-20 10:42:00,
2013-02-20 06:22:00,36.0,33.0,-100.00,WNW,284,0.0,-999.0,89,0.00,,,-99.99,,2013-02-20 11:22:00,
2013-02-20 06:32:00,36.0,33.0,-100.00,WNW,284,0.0,-999.0,89,0.00,,,-99.99,,2013-02-20 11:32:00,
2013-02-20 06:42:00,36.0,33.0,-100.00,WNW,284,0.0,-999.0,89,0.00,,,-99.99,,2013-02-20 11:42:00,
2013-02-20 07:22:00,33.0,32.0,-100.00,West,263,0.0,-999.0,94,0.00,,,-99.99,,2013-02-20 12:22:00,
2013-02-20 07:32:00,33.0,32.0,-100.00,West,263,0.0,-999.0,94,0.00,,,-99.99,,2013-02-20 12:32:00,
2013-02-20 07:42:00,33.0,32.0,-100.00,West,263,0.0,-999.0,94,0.00,,,-99.99,,2013-02-20 12:42:00,
2013-02-20 08:22:00,34.0,34.0,-100.00,West,268,0.0,-999.0,97,0.00,,,-99.99,,2013-02-20 13:22:00,
2013-02-20 08:32:00,34.0,34.0,-100.00,West,268,0.0,-999.0,97,0.00,,,-99.99,,2013-02-20 13:32:00,
2013-02-20 08:42:00,34.0,34.0,-100.00,West,268,0.0,-999.0,97,0.00,,,-99.99,,2013-02-20 13:42:00,
2013-02-20 09:11:00,42.0,33.0,-100.00,NW,305,3.0,-999.0,68,0.00,,,-99.99,,2013-02-20 14:11:00,
2013-02-20 09:22:00,42.0,33.0,-100.00,NW,305,3.0,-999.0,68,0.00,,,-99.99,,2013-02-20 14:22:00,
2013-02-20 09:32:00,42.0,33.0,-100.00,NW,305,3.0,-999.0,68,0.00,,,-99.99,,2013-02-20 14:32:00,
2013-02-20 09:42:00,42.0,33.0,-100.00,NW,305,3.0,-999.0,68,0.00,,,-99.99,,2013-02-20 14:42:00,
2013-02-20 10:12:00,46.0,31.0,-100.00,NNW,330,3.0,-999.0,56,0.00,,,-99.99,,2013-02-20 15:12:00,
2013-02-20 10:22:00,46.0,31.0,-100.00,NNW,330,3.0,-999.0,56,0.00,,,-99.99,,2013-02-20 15:22:00,
2013-02-20 10:32:00,46.0,31.0,-100.00,NNW,330,3.0,-999.0,56,0.00,,,-99.99,,2013-02-20 15:32:00,
2013-02-20 10:42:00,46.0,31.0,-100.00,NNW,330,3.0,-999.0,56,0.00,,,-99.99,,2013-02-20 15:42:00,
2013-02-20 11:12:00,49.0,30.0,-100.00,North,349,2.0,-999.0,48,0.00,,,-99.99,,2013-02-20 16:12:00,
2013-02-20 11:22:00,49.0,30.0,-100.00,North,349,2.0,-999.0,48,0.00,,,-99.99,,2013-02-20 16:22:00,
2013-02-20 11:32:00,49.0,30.0,-100.00,North,349,2.0,-999.0,48,0.00,,,-99.99,,2013-02-20 16:32:00,
2013-02-20 11:42:00,49.0,30.0,-100.00,North,349,2.0,-999.0,48,0.00,,,-99.99,,2013-02-20 16:42:00,
2013-02-20 12:11:00,52.0,25.0,-100.00,North,0,2.0,-999.0,36,0.00,,,-99.99,,2013-02-20 17:11:00,
2013-02-20 12:21:00,52.0,25.0,-100.00,North,0,2.0,-999.0,36,0.00,,,-99.99,,2013-02-20 17:21:00,
2013-02-20 12:32:00,52.0,25.0,-100.00,North,0,2.0,-999.0,36,0.00,,,-99.99,,2013-02-20 17:32:00,
2013-02-20 12:42:00,52.0,25.0,-100.00,North,0,2.0,-999.0,36,0.00,,,-99.99,,2013-02-20 17:42:00,
2013-02-20 13:11:00,54.0,25.0,-100.00,North,2,1.0,-999.0,32,0.00,,,-99.99,,2013-02-20 18:11:00,
2013-02-20 13:22:00,54.0,25.0,-100.00,North,2,1.0,-999.0,32,0.00,,,-99.99,,2013-02-20 18:22:00,
2013-02-20 13:32:00,54.0,25.0,-100.00,North,2,1.0,-999.0,32,0.00,,,-99.99,,2013-02-20 18:32:00,
2013-02-20 13:42:00,54.0,25.0,-100.00,North,2,1.0,-999.0,32,0.00,,,-99.99,,2013-02-20 18:42:00,
2013-02-20 14:21:00,56.0,27.0,-100.00,South,184,2.0,-999.0,34,0.00,,,-99.99,,2013-02-20 19:21:00,
2013-02-20 14:32:00,56.0,27.0,-100.00,South,184,2.0,-999.0,34,0.00,,,-99.99,,2013-02-20 19:32:00,
2013-02-20 14:41:00,56.0,27.0,-100.00,South,184,2.0,-999.0,34,0.00,,,-99.99,,2013-02-20 19:41:00,
2013-02-20 15:21:00,55.0,31.0,-100.00,South,181,2.0,-999.0,41,0.00,,,-99.99,,2013-02-20 20:21:00,
2013-02-20 15:31:00,55.0,31.0,-100.00,South,181,2.0,-999.0,41,0.00,,,-99.99,,2013-02-20 20:31:00,
2013-02-20 15:41:00,55.0,31.0,-100.00,South,181,2.0,-999.0,41,0.00,,,-99.99,,2013-02-20 20:41:00,
2013-02-20 16:11:00,54.0,32.0,-100.00,South,172,2.0,-999.0,43,0.00,,,-99.99,,2013-02-20 21:11:00,
2013-02-20 16:21:00,54.0,32.0,-100.00,South,172,2.0,-999.0,43,0.00,,,-99.99,,2013-02-20 21:21:00,
2013-02-20 16:32:00,54.0,32.0,-100.00,South,172,2.0,-999.0,43,0.00,,,-99.99,,2013-02-20 21:32:00,
2013-02-20 16:42:00,54.0,32.0,-100.00,South,172,2.0,-999.0,43,0.00,,,-99.99,,2013-02-20 21:42:00,
2013-02-20 17:11:00,53.0,31.0,-100.00,South,174,2.0,-999.0,44,0.00,,,-99.99,,2013-02-20 22:11:00,
2013-02-20 17:21:00,53.0,31.0,-100.00,South,174,2.0,-999.0,44,0.00,,,-99.99,,2013-02-20 22:21:00,
2013-02-20 17:31:00,53.0,31.0,-100.00,South,174,2.0,-999.0,44,0.00,,,-99.99,,2013-02-20 22:31:00,
2013-02-20 17:43:00,53.0,31.0,-100.00,South,174,2.0,-999.0,44,0.00,,,-99.99,,2013-02-20 22:43:00,
2013-02-20 18:12:00,50.0,36.0,-100.00,SSE,159,1.0,-999.0,58,0.00,,,-99.99,,2013-02-20 23:12:00,
2013-02-20 18:22:00,50.0,36.0,-100.00,SSE,159,1.0,-999.0,58,0.00,,,-99.99,,2013-02-20 23:22:00,
2013-02-20 18:32:00,50.0,36.0,-100.00,SSE,159,1.0,-999.0,58,0.00,,,-99.99,,2013-02-20 23:32:00,
2013-02-20 18:42:00,50.0,36.0,-100.00,SSE,159,1.0,-999.0,58,0.00,,,-99.99,,2013-02-20 23:42:00,
2013-02-20 19:22:00,50.0,37.0,-100.00,South,187,1.0,-999.0,62,0.00,,,-99.99,,2013-02-21 00:22:00,
2013-02-20 19:32:00,50.0,37.0,-100.00,South,187,1.0,-999.0,62,0.00,,,-99.99,,2013-02-21 00:32:00,
2013-02-20 19:42:00,50.0,37.0,-100.00,South,187,1.0,-999.0,62,0.00,,,-99.99,,2013-02-21 00:42:00,
2013-02-20 20:12:00,49.0,37.0,-100.00,SSW,198,1.0,-999.0,64,0.00,,,-99.99,,2013-02-21 01:12:00,
2013-02-20 20:21:00,49.0,37.0,-100.00,SSW,198,1.0,-999.0,64,0.00,,,-99.99,,2013-02-21 01:21:00,
2013-02-20 20:32:00,49.0,37.0,-100.00,SSW,198,1.0,-999.0,64,0.00,,,-99.99,,2013-02-21 01:32:00,
2013-02-20 20:42:00,49.0,37.0,-100.00,SSW,198,1.0,-999.0,64,0.00,,,-99.99,,2013-02-21 01:42:00,
2013-02-20 21:22:00,48.0,38.0,-100.00,South,190,1.0,-999.0,68,0.00,,,-99.99,,2013-02-21 02:22:00,
2013-02-20 21:32:00,48.0,38.0,-100.00,South,190,1.0,-999.0,68,0.00,,,-99.99,,2013-02-21 02:32:00,
2013-02-20 21:42:00,48.0,38.0,-100.00,South,190,1.0,-999.0,68,0.00,,,-99.99,,2013-02-21 02:42:00,
2013-02-20 22:12:00,49.0,40.0,-100.00,SSW,207,1.0,-999.0,71,0.00,,,-99.99,,2013-02-21 03:12:00,
2013-02-20 22:21:00,49.0,40.0,-100.00,SSW,207,1.0,-999.0,71,0.00,,,-99.99,,2013-02-21 03:21:00,
2013-02-20 22:32:00,49.0,40.0,-100.00,SSW,207,1.0,-999.0,71,0.00,,,-99.99,,2013-02-21 03:32:00,
2013-02-20 22:42:00,49.0,40.0,-100.00,SSW,207,1.0,-999.0,71,0.00,,,-99.99,,2013-02-21 03:42:00,
2013-02-20 23:22:00,44.0,40.0,-100.00,SSW,203,1.0,-999.0,86,0.00,,,-99.99,,2013-02-21 04:22:00,
2013-02-20 23:32:00,44.0,40.0,-100.00,SSW,203,1.0,-999.0,86,0.00,,,-99.99,,2013-02-21 04:32:00,
2013-02-20 23:42:00,44.0,40.0,-100.00,SSW,203,1.0,-999.0,86,0.00,,,-99.99,,2013-02-21 04:42:00,
2013-02-20 23:45:00,42.0,40.0,-100.00,WNW,292,0.0,-999.0,93,0.00,,,-99.99,,2013-02-21 04:45:00,